EW0370 Weather Reports


Display with metric or nautical units.
time (UTC)temp
F
wind
direction
speed
MPH
gust
MPH
rain 1hr
in
rain 24hr
in
rain mn
in
humidity
%
barometer
mb
20230130071427 22 11 0.0 0.0 0.00 0.00 0.00 69 1026.5
20230130070927 22 16 0.0 0.0 0.00 0.00 0.00 68 1026.3
20230130070427 22 5 0.0 0.0 0.00 0.00 0.00 69 1026.4
20230130065926 22 355 0.0 0.0 0.00 0.00 0.00 69 1026.3
20230130064927 23 355 0.0 0.0 0.00 0.00 0.00 69 1026.2
20230130064427 23 331 0.0 0.0 0.00 0.00 0.00 69 1026.3
20230130063926 23 9 0.0 0.0 0.00 0.00 0.00 69 1026.4
20230130063427 23 360 0.0 0.0 0.00 0.00 0.00 70 1026.4
20230130062926 23 9 0.0 0.0 0.00 0.00 0.00 71 1026.7
20230130062426 23 355 0.0 0.0 0.00 0.00 0.00 71 1026.6
20230130061926 23 360 0.0 0.0 0.00 0.00 0.00 73 1026.5
20230130061426 24 360 0.0 0.0 0.00 0.00 0.00 74 1026.5
20230130060926 24 360 0.0 0.0 0.00 0.00 0.00 76 1026.4
20230130060426 24 9 0.0 0.0 0.00 0.00 0.00 77 1026.4
20230130055926 24 15 0.0 0.0 0.00 0.00 0.00 78 1026.3
20230130054926 24 355 0.0 0.0 0.00 0.00 0.00 78 1026.3
20230130054426 24 360 0.0 0.0 0.00 0.00 0.00 78 1026.1
20230130052926 24 11 0.0 0.0 0.00 0.00 0.00 79 1026.2
20230130052425 24 355 0.0 0.0 0.00 0.00 0.00 79 1025.9
20230130051926 24 10 0.0 0.0 0.00 0.00 0.00 80 1025.9
20230130051425 24 5 0.0 0.0 0.00 0.00 0.00 80 1025.9
20230130050426 24 5 0.0 0.0 0.00 0.00 0.00 81 1025.7
20230130045926 24 355 0.0 0.0 0.00 0.00 0.00 81 1025.6
20230130045425 24 350 0.0 0.0 0.00 0.00 0.00 81 1025.6
20230130044925 24 36 0.0 0.0 0.00 0.00 0.00 82 1025.6
20230130044425 24 5 0.0 0.0 0.00 0.00 0.00 82 1025.6
20230130043925 24 355 0.0 0.0 0.00 0.00 0.00 82 1025.5
20230130043425 24 342 0.0 0.0 0.00 0.00 0.00 82 1025.5
20230130042925 24 355 0.0 0.0 0.00 0.00 0.00 83 1025.5
20230130042425 24 348 0.0 0.0 0.00 0.00 0.00 83 1025.2
20230130041925 24 5 0.0 0.0 0.00 0.00 0.00 83 1025.3
20230130041424 24 335 0.0 0.0 0.00 0.00 0.00 83 1025.5
20230130040925 23 344 0.0 0.0 0.00 0.00 0.00 83 1025.6
20230130035925 23 355 0.0 0.0 0.00 0.00 0.00 84 1025.2
20230130035424 23 355 0.0 0.0 0.00 0.00 0.00 84 1025.3
20230130034925 23 355 0.0 0.0 0.00 0.00 0.00 84 1025.1
20230130034424 23 343 0.0 0.0 0.00 0.00 0.00 84 1025.0
20230130033424 23 331 0.0 0.0 0.00 0.00 0.00 84 1025.2
20230130032924 23 332 0.0 0.0 0.00 0.00 0.00 84 1025.2
20230130032424 23 360 0.0 0.0 0.00 0.00 0.00 84 1025.1
20230130031424 23 13 0.0 0.0 0.00 0.00 0.00 84 1024.9
20230130030924 23 355 0.0 0.0 0.00 0.00 0.00 85 1024.9
20230130030424 23 290 0.0 0.0 0.00 0.00 0.00 85 1024.9
20230130025924 23 5 0.0 0.0 0.00 0.00 0.00 85 1024.9
20230130025424 23 11 0.0 0.0 0.00 0.00 0.00 85 1024.5
20230130024924 23 311 0.0 0.0 0.00 0.00 0.00 85 1024.4
20230130024424 23 9 0.0 0.0 0.00 0.00 0.00 85 1024.3
20230130023923 23 11 0.0 0.0 0.00 0.00 0.00 85 1024.2
20230130023423 23 344 0.0 0.0 0.00 0.00 0.00 85 1024.3
20230130022923 23 12 0.0 0.0 0.00 0.00 0.00 86 1024.3
20230130022423 22 351 0.0 0.0 0.00 0.00 0.00 86 1024.3
20230130021923 22 5 0.0 0.0 0.00 0.00 0.00 86 1024.3
20230130021423 22 5 0.0 0.0 0.00 0.00 0.00 86 1024.2
20230130020923 22 10 0.0 0.0 0.00 0.00 0.00 86 1024.1
20230130020423 22 5 0.0 0.0 0.00 0.00 0.00 86 1024.2
20230130015923 22 5 0.0 0.0 0.00 0.00 0.00 86 1024.2
20230130015423 22 20 0.0 0.0 0.00 0.00 0.00 86 1024.1
20230130014923 22 355 0.0 0.0 0.00 0.00 0.00 86 1023.8
20230130014423 22 5 0.0 0.0 0.00 0.00 0.00 85 1023.9
20230130013423 22 5 0.0 0.0 0.00 0.00 0.00 85 1024.0
20230130012923 22 360 0.0 0.0 0.00 0.00 0.00 85 1024.0
20230130012422 22 5 0.0 0.0 0.00 0.00 0.00 85 1023.7
20230130011923 22 11 0.0 0.0 0.00 0.00 0.00 85 1023.6
20230130011423 22 360 0.0 0.0 0.00 0.00 0.00 85 1023.6
20230130010922 22 360 0.0 0.0 0.00 0.00 0.00 84 1023.8
20230130010423 22 355 0.0 0.0 0.00 0.00 0.00 84 1023.7
20230130005422 22 343 0.0 0.0 0.00 0.00 0.00 84 1023.6
20230130004922 22 350 0.0 0.0 0.00 0.00 0.00 84 1023.7
20230130004422 22 17 0.0 0.0 0.00 0.00 0.00 83 1023.6
20230130003922 22 17 0.0 0.0 0.00 0.00 0.00 83 1023.3
20230130003422 22 9 0.0 0.0 0.00 0.00 0.00 83 1023.3
20230130002922 22 23 0.0 0.0 0.00 0.00 0.00 83 1023.2
20230130002422 22 24 0.0 0.0 0.00 0.00 0.00 82 1023.1
20230130001922 22 350 0.0 0.0 0.00 0.00 0.00 82 1023.0
20230130001422 22 333 0.0 0.0 0.00 0.00 0.00 82 1023.0
20230130000922 22 11 0.0 0.0 0.00 0.00 0.00 82 1022.9
20230130000422 22 325 0.0 0.0 0.00 0.00 0.00 82 1022.8
20230129235922 22 355 0.0 0.0 0.00 0.00 0.00 82 1022.7
20230129235421 22 23 0.0 0.0 0.00 0.00 0.00 82 1022.7
20230129234922 22 5 0.0 0.0 0.00 0.00 0.00 82 1022.7
20230129234421 22 350 0.0 0.0 0.00 0.00 0.00 82 1022.6
20230129233921 22 5 0.0 0.0 0.00 0.00 0.00 82 1022.4
20230129233422 22 30 0.0 0.0 0.00 0.00 0.00 82 1022.3
20230129232921 22 5 0.0 0.0 0.00 0.00 0.00 82 1022.1
20230129231921 22 5 0.0 0.0 0.00 0.00 0.00 81 1022.1
20230129231421 23 5 0.0 0.0 0.00 0.00 0.00 82 1022.2
20230129230421 22 22 0.0 0.0 0.00 0.00 0.00 81 1021.8
20230129225921 22 346 0.0 0.0 0.00 0.00 0.00 81 1021.6
20230129225421 23 337 0.0 0.0 0.00 0.00 0.00 81 1021.5
20230129224921 23 25 0.0 0.0 0.00 0.00 0.00 81 1021.6
20230129224421 23 11 0.0 0.0 0.00 0.00 0.00 81 1021.5
20230129223921 23 13 0.0 0.0 0.00 0.00 0.00 81 1021.6
20230129222921 23 13 0.0 0.0 0.00 0.00 0.00 81 1021.9
20230129222421 23 355 0.0 0.0 0.00 0.00 0.00 82 1021.9
20230129221921 23 9 0.0 0.0 0.00 0.00 0.00 82 1022.1
20230129221420 23 17 0.0 0.0 0.00 0.00 0.00 81 1022.2
20230129220420 23 5 0.0 0.0 0.00 0.00 0.00 81 1021.8
20230129215920 23 15 0.0 0.0 0.00 0.00 0.00 81 1021.4
20230129215420 23 5 0.0 0.0 0.00 0.00 0.00 81 1021.5
20230129214420 23 349 0.0 0.0 0.00 0.00 0.00 82 1021.2
20230129213420 23 344 0.0 0.0 0.00 0.00 0.00 82 1021.2
20230129212920 22 351 0.0 0.0 0.00 0.00 0.00 82 1020.9
20230129212420 23 13 0.0 0.0 0.00 0.00 0.00 82 1021.1
20230129211920 23 12 0.0 0.0 0.00 0.00 0.00 82 1021.0
20230129211420 23 312 0.0 0.0 0.00 0.00 0.00 82 1021.0
20230129210919 22 18 0.0 0.0 0.00 0.00 0.00 83 1020.6
20230129210420 22 5 0.0 0.0 0.00 0.00 0.00 82 1020.7
20230129205919 22 355 0.0 0.0 0.00 0.00 0.00 83 1020.7
20230129205419 22 18 0.0 0.0 0.00 0.00 0.00 83 1020.8
20230129204920 22 345 0.0 0.0 0.00 0.00 0.00 83 1020.7
20230129203919 22 9 0.0 0.0 0.00 0.00 0.00 83 1020.7
20230129203419 22 327 0.0 0.0 0.00 0.00 0.00 83 1020.6
20230129202919 22 294 0.0 0.0 0.00 0.00 0.00 83 1020.7
20230129202419 22 360 0.0 0.0 0.00 0.00 0.00 83 1020.9
20230129201919 22 339 0.0 0.0 0.00 0.00 0.00 83 1021.0
20230129201419 22 18 0.0 0.0 0.00 0.00 0.00 84 1021.2
20230129200919 22 15 0.0 0.0 0.00 0.00 0.00 84 1021.5
20230129200419 22 15 0.0 0.0 0.00 0.00 0.00 84 1021.7
20230129195919 22 340 0.0 0.0 0.00 0.00 0.00 84 1021.7
20230129195419 22 350 0.0 0.0 0.00 0.00 0.00 83 1021.8
20230129194919 22 360 0.0 0.0 0.00 0.00 0.00 84 1021.7
20230129194418 22 13 0.0 0.0 0.00 0.00 0.00 84 1021.8
20230129193918 22 11 0.0 0.0 0.00 0.00 0.00 84 1021.8
20230129193419 22 14 0.0 0.0 0.00 0.00 0.00 84 1021.8
20230129192919 22 336 0.0 0.0 0.00 0.00 0.00 84 1021.8
20230129192418 22 11 0.0 0.0 0.00 0.00 0.00 84 1021.7
20230129191918 22 347 0.0 0.0 0.00 0.00 0.00 84 1021.7
20230129191418 22 355 0.0 0.0 0.00 0.00 0.00 85 1021.9
20230129190419 22 5 0.0 0.0 0.00 0.00 0.00 85 1022.1
20230129185919 22 11 0.0 0.0 0.00 0.00 0.00 86 1022.1
20230129185418 22 12 0.0 0.0 0.00 0.00 0.00 86 1022.1
20230129184920 22 360 0.0 0.0 0.00 0.00 0.00 86 1022.2
20230129184418 22 14 0.0 0.0 0.00 0.00 0.00 86 1022.1
20230129183918 22 12 0.0 0.0 0.00 0.00 0.00 86 1022.2
20230129183418 22 355 0.0 0.0 0.00 0.00 0.00 86 1022.3
20230129182918 22 5 0.0 0.0 0.00 0.00 0.00 86 1022.2
20230129182418 22 17 0.0 0.0 0.00 0.00 0.00 86 1022.3
20230129181919 22 15 0.0 0.0 0.00 0.00 0.00 86 1022.3
20230129180918 22 5 0.0 0.0 0.00 0.00 0.00 87 1022.4
20230129175918 22 360 0.0 0.0 0.00 0.00 0.00 87 1022.7
20230129175418 22 360 0.0 0.0 0.00 0.00 0.00 87 1023.0
20230129174918 22 5 0.0 0.0 0.00 0.00 0.00 88 1022.8
20230129173918 22 336 0.0 0.0 0.00 0.00 0.00 88 1023.1
20230129172918 21 14 0.0 0.0 0.00 0.00 0.00 88 1023.2
20230129172417 21 360 0.0 0.0 0.00 0.00 0.00 88 1023.2
20230129171918 21 351 0.0 0.0 0.00 0.00 0.00 88 1023.2
20230129171417 22 16 0.0 0.0 0.00 0.00 0.00 88 1023.3
20230129170917 22 355 0.0 0.0 0.00 0.00 0.00 88 1023.5
20230129165918 22 11 0.0 0.0 0.00 0.00 0.00 88 1023.3
20230129164918 22 10 0.0 0.0 0.00 0.00 0.00 89 1023.6
20230129164417 22 58 0.0 0.0 0.00 0.00 0.00 89 1023.6
20230129163919 22 334 0.0 0.0 0.00 0.00 0.00 88 1023.7
20230129163418 22 10 0.0 0.0 0.00 0.00 0.00 88 1023.5
20230129162918 22 9 0.0 0.0 0.00 0.00 0.00 88 1023.5
20230129161916 22 12 0.0 0.0 0.00 0.00 0.00 89 1023.3
20230129161417 22 9 0.0 0.0 0.00 0.00 0.00 89 1023.1
20230129160917 22 355 0.0 0.0 0.00 0.00 0.00 89 1023.3
20230129160416 22 12 0.0 0.0 0.00 0.00 0.00 89 1022.9
20230129155916 22 5 0.0 0.0 0.00 0.00 0.00 89 1022.7
20230129155416 22 5 0.0 0.0 0.00 0.00 0.00 89 1023.1
20230129154917 22 314 0.0 0.0 0.00 0.00 0.00 89 1023.3
20230129154416 22 13 0.0 0.0 0.00 0.00 0.00 89 1023.4
20230129153917 22 11 0.0 0.0 0.00 0.00 0.00 89 1023.0
20230129153416 22 5 0.0 0.0 0.00 0.00 0.00 89 1023.1
20230129152416 22 17 0.0 0.0 0.00 0.00 0.00 89 1022.9
20230129151916 22 9 0.0 0.0 0.00 0.00 0.00 89 1022.8
20230129151416 22 5 0.0 0.0 0.00 0.00 0.00 89 1022.7
20230129150916 22 355 0.0 0.0 0.00 0.00 0.00 89 1022.8
20230129150416 22 17 0.0 0.0 0.00 0.00 0.00 89 1022.5
20230129145416 22 17 0.0 0.0 0.00 0.00 0.00 89 1023.2
20230129144916 22 355 0.0 0.0 0.00 0.00 0.00 89 1022.9
20230129144416 23 355 0.0 0.0 0.00 0.00 0.00 89 1022.8
20230129143916 23 355 0.0 0.0 0.00 0.00 0.00 89 1022.6
20230129143416 23 12 0.0 0.0 0.00 0.00 0.00 89 1022.5
20230129142916 23 360 0.0 0.0 0.00 0.00 0.00 89 1022.6
20230129141915 23 9 0.0 0.0 0.00 0.00 0.00 89 1022.5
20230129141415 23 5 0.0 0.0 0.00 0.00 0.00 89 1022.2
20230129140915 23 17 0.0 0.0 0.00 0.00 0.00 89 1022.0
20230129140415 23 360 0.0 0.0 0.00 0.00 0.00 89 1022.0
20230129135915 23 360 0.0 0.0 0.00 0.00 0.00 89 1021.9
20230129135415 23 5 0.0 0.0 0.00 0.00 0.00 89 1021.9
20230129134915 23 320 0.0 0.0 0.00 0.00 0.00 88 1022.0
20230129134415 24 338 0.0 0.0 0.00 0.00 0.00 89 1022.4
20230129133915 24 342 0.0 0.0 0.00 0.00 0.00 89 1022.7
20230129133415 24 5 0.0 0.0 0.00 0.00 0.00 89 1022.6
20230129132915 24 360 0.0 0.0 0.00 0.00 0.00 89 1022.2
20230129132415 24 360 0.0 0.0 0.00 0.00 0.00 89 1022.2
20230129131414 24 342 0.0 0.0 0.00 0.00 0.00 89 1022.0
20230129130914 24 5 0.0 0.0 0.00 0.00 0.00 89 1021.7
20230129130414 25 355 0.0 0.0 0.00 0.00 0.00 89 1021.4
20230129125914 25 350 0.0 0.0 0.00 0.00 0.00 89 1021.3
20230129125414 24 340 0.0 0.0 0.00 0.00 0.00 89 1021.1
20230129124414 25 5 0.0 0.0 0.00 0.00 0.00 89 1021.0
20230129123914 25 360 0.0 0.0 0.00 0.00 0.00 89 1020.8
20230129123414 25 355 0.0 0.0 0.00 0.00 0.00 89 1020.7
20230129122914 25 349 0.0 0.0 0.00 0.00 0.00 89 1020.5
20230129122414 25 355 0.0 0.0 0.00 0.00 0.00 89 1020.4
20230129121914 25 347 0.0 0.0 0.00 0.00 0.00 89 1020.3
20230129121414 25 11 0.0 0.0 0.00 0.00 0.00 89 1020.3
20230129120914 25 18 0.0 0.0 0.00 0.00 0.00 89 1020.0
20230129120414 25 13 0.0 0.0 0.00 0.00 0.00 89 1020.2
20230129115913 25 9 0.0 0.0 0.00 0.00 0.00 89 1020.0
20230129115413 25 350 0.0 0.0 0.00 0.00 0.00 89 1019.9
20230129113913 25 17 0.0 0.0 0.00 0.00 0.00 88 1019.1
20230129113414 25 360 0.0 0.0 0.00 0.00 0.00 88 1020.3
20230129112913 26 355 0.0 0.0 0.00 0.00 0.00 88 1020.6
20230129111913 26 346 0.0 0.0 0.00 0.00 0.00 88 1020.6
20230129111413 26 5 0.0 0.0 0.00 0.00 0.00 88 1020.6
20230129110913 26 13 0.0 0.0 0.00 0.00 0.00 88 1020.5
20230129110413 26 5 0.0 0.0 0.00 0.00 0.00 88 1020.5
20230129105413 26 5 0.0 0.0 0.00 0.00 0.00 88 1020.1
20230129104913 26 5 0.0 0.0 0.00 0.00 0.00 88 1020.1
20230129104412 26 335 0.0 0.0 0.00 0.00 0.00 87 1020.0
20230129103913 26 5 0.0 0.0 0.00 0.00 0.00 87 1019.8
20230129102912 27 5 0.0 0.0 0.00 0.00 0.00 87 1020.0
20230129102413 27 346 0.0 0.0 0.00 0.00 0.00 87 1020.0
20230129101413 27 9 0.0 0.0 0.00 0.00 0.00 87 1019.9
20230129100412 27 347 0.0 0.0 0.00 0.00 0.00 87 1019.6
20230129095913 27 5 0.0 0.0 0.00 0.00 0.00 87 1019.6
20230129094912 28 350 0.0 0.0 0.00 0.00 0.00 87 1019.8
20230129094413 28 336 0.0 0.0 0.00 0.00 0.00 87 1019.5
20230129093912 28 38 0.0 0.0 0.00 0.00 0.00 87 1019.5
20230129093412 29 335 0.0 0.0 0.00 0.00 0.00 87 1019.5
20230129092912 29 350 0.0 0.0 0.00 0.00 0.00 87 1019.4
20230129092412 29 13 0.0 0.0 0.00 0.00 0.00 87 1019.3
20230129091912 29 11 0.0 0.0 0.00 0.00 0.00 87 1019.1
20230129091412 29 15 0.0 0.0 0.00 0.00 0.00 87 1018.9
20230129090912 29 13 0.0 0.0 0.00 0.00 0.00 87 1018.7
20230129085911 30 5 0.0 0.0 0.00 0.00 0.00 87 1018.6
20230129085411 30 342 0.0 0.0 0.00 0.00 0.00 87 1018.8
20230129084911 30 9 0.0 0.0 0.00 0.00 0.00 87 1018.6
20230129084412 30 355 0.0 0.0 0.00 0.00 0.00 87 1018.5
20230129083911 30 360 0.0 0.0 0.00 0.00 0.00 87 1018.3
20230129083412 30 355 0.0 0.0 0.00 0.00 0.00 87 1018.2
20230129082911 31 355 0.0 0.0 0.00 0.00 0.00 87 1018.1
20230129082411 31 335 0.0 0.0 0.00 0.00 0.00 87 1018.0
20230129081911 31 23 0.0 0.0 0.00 0.00 0.00 87 1017.8
20230129081411 31 9 0.0 0.0 0.00 0.00 0.00 87 1017.8
20230129080911 31 17 0.0 0.0 0.00 0.00 0.00 87 1017.8
20230129075911 31 5 0.0 0.0 0.00 0.00 0.00 86 1017.4
20230129074911 32 11 0.0 0.0 0.00 0.00 0.00 85 1017.3
20230129074411 32 5 0.0 0.0 0.00 0.00 0.00 85 1017.3
20230129073911 32 5 0.0 0.0 0.00 0.00 0.00 86 1017.1
20230129073411 32 5 0.0 0.0 0.00 0.00 0.00 86 1016.9
20230129072911 33 9 0.0 0.0 0.00 0.00 0.00 85 1016.8
20230129072411 33 340 0.0 0.0 0.00 0.00 0.00 86 1016.9
20230129071911 33 11 0.0 0.0 0.00 0.00 0.00 86 1016.9